Time,TemperatureF,DewpointF,PressureIn,WindDirection,WindDirectionDegrees,WindSpeedMPH,WindSpeedGustMPH,Humidity,HourlyPrecipIn,Conditions,Clouds,dailyrainin,SolarRadiationWatts/m^2,SoftwareType,DateUTC
2013-03-03 00:00:00,22.6,13.6,30.17,ESE,103,1.0,1.0,68,0.00,,,0.00,0,Wunderground v.1.15,2013-03-03 06:00:00,
2013-03-03 00:05:00,22.5,13.5,30.17,ESE,103,1.0,1.0,68,0.00,,,0.00,0,Wunderground v.1.15,2013-03-03 06:05:00,
2013-03-03 00:15:00,22.5,13.5,30.17,ESE,103,1.0,2.0,68,0.00,,,0.00,0,Wunderground v.1.15,2013-03-03 06:15:00,
2013-03-03 00:20:00,22.4,13.4,30.17,ESE,103,0.0,0.0,68,0.00,,,0.00,0,Wunderground v.1.15,2013-03-03 06:20:00,
2013-03-03 00:25:00,22.2,13.2,30.17,ESE,103,0.0,0.0,68,0.00,,,0.00,0,Wunderground v.1.15,2013-03-03 06:25:00,
2013-03-03 00:30:00,22.1,13.1,30.17,ESE,103,0.0,0.0,68,0.00,,,0.00,0,Wunderground v.1.15,2013-03-03 06:30:00,
2013-03-03 00:35:00,22.0,13.0,30.17,ESE,103,0.0,0.0,68,0.00,,,0.00,0,Wunderground v.1.15,2013-03-03 06:35:00,
2013-03-03 00:45:00,21.8,12.9,30.15,ESE,103,0.0,0.0,68,0.00,,,0.00,0,Wunderground v.1.15,2013-03-03 06:45:00,
2013-03-03 00:50:00,21.6,12.7,30.15,ESE,103,0.0,2.0,68,0.00,,,0.00,0,Wunderground v.1.15,2013-03-03 06:50:00,
2013-03-03 00:55:00,21.6,12.7,30.15,ESE,103,0.0,2.0,68,0.00,,,0.00,0,Wunderground v.1.15,2013-03-03 06:55:00,
2013-03-03 01:00:00,21.4,12.5,30.16,ESE,103,0.0,0.0,68,0.00,,,0.00,0,Wunderground v.1.15,2013-03-03 07:00:00,
2013-03-03 01:05:00,21.1,12.2,30.16,ESE,103,0.0,1.0,68,0.00,,,0.00,0,Wunderground v.1.15,2013-03-03 07:05:00,
2013-03-03 01:14:00,21.0,12.4,30.16,ESE,103,0.0,0.0,69,0.00,,,0.00,0,Wunderground v.1.15,2013-03-03 07:14:00,
2013-03-03 01:20:00,21.0,12.4,30.16,ESE,103,0.0,0.0,69,0.00,,,0.00,0,Wunderground v.1.15,2013-03-03 07:20:00,
2013-03-03 01:25:00,20.9,12.3,30.16,ESE,103,0.0,0.0,69,0.00,,,0.00,0,Wunderground v.1.15,2013-03-03 07:25:00,
2013-03-03 01:30:00,20.9,12.3,30.15,ESE,103,0.0,1.0,69,0.00,,,0.00,0,Wunderground v.1.15,2013-03-03 07:30:00,
2013-03-03 01:35:00,20.7,12.1,30.15,ESE,103,0.0,1.0,69,0.00,,,0.00,0,Wunderground v.1.15,2013-03-03 07:35:00,
2013-03-03 01:40:00,20.7,12.5,30.15,ESE,103,0.0,0.0,70,0.00,,,0.00,0,Wunderground v.1.15,2013-03-03 07:40:00,
2013-03-03 01:45:00,20.6,12.4,30.15,ESE,103,0.0,0.0,70,0.00,,,0.00,0,Wunderground v.1.15,2013-03-03 07:45:00,
2013-03-03 01:55:00,20.4,12.2,30.15,ESE,103,0.0,0.0,70,0.00,,,0.00,0,Wunderground v.1.15,2013-03-03 07:55:00,
2013-03-03 02:00:00,20.3,12.1,30.15,ESE,103,0.0,0.0,70,0.00,,,0.00,0,Wunderground v.1.15,2013-03-03 08:00:00,
2013-03-03 02:05:00,20.2,12.0,30.15,ESE,103,0.0,1.0,70,0.00,,,0.00,0,Wunderground v.1.15,2013-03-03 08:05:00,
2013-03-03 02:15:00,20.2,12.0,30.15,ESE,103,0.0,0.0,70,0.00,,,0.00,0,Wunderground v.1.15,2013-03-03 08:15:00,
2013-03-03 02:20:00,20.2,12.0,30.15,ESE,103,0.0,0.0,70,0.00,,,0.00,0,Wunderground v.1.15,2013-03-03 08:20:00,
2013-03-03 02:25:00,20.3,11.7,30.15,ESE,103,0.0,0.0,69,0.00,,,0.00,0,Wunderground v.1.15,2013-03-03 08:25:00,
2013-03-03 02:30:00,20.5,11.9,30.14,ESE,103,0.0,0.0,69,0.00,,,0.00,0,Wunderground v.1.15,2013-03-03 08:30:00,
2013-03-03 02:35:00,20.6,11.7,30.14,ESE,103,0.0,0.0,68,0.00,,,0.00,0,Wunderground v.1.15,2013-03-03 08:35:00,
2013-03-03 02:40:00,20.6,11.7,30.14,ESE,103,0.0,0.0,68,0.00,,,0.00,0,Wunderground v.1.15,2013-03-03 08:40:00,
2013-03-03 02:45:00,20.7,11.8,30.14,ESE,103,0.0,0.0,68,0.00,,,0.00,0,Wunderground v.1.15,2013-03-03 08:45:00,
2013-03-03 02:50:00,20.7,11.5,30.14,ESE,103,0.0,0.0,67,0.00,,,0.00,0,Wunderground v.1.15,2013-03-03 08:50:00,
2013-03-03 03:00:00,20.8,11.2,30.14,ESE,103,0.0,0.0,66,0.00,,,0.00,0,Wunderground v.1.15,2013-03-03 09:00:00,
2013-03-03 03:05:00,20.8,10.9,30.14,ESE,103,0.0,0.0,65,0.00,,,0.00,0,Wunderground v.1.15,2013-03-03 09:05:00,
2013-03-03 03:15:00,21.1,10.1,30.13,ESE,103,0.0,0.0,62,0.00,,,0.00,0,Wunderground v.1.15,2013-03-03 09:15:00,
2013-03-03 03:20:00,21.3,9.9,30.13,ESE,103,0.0,0.0,61,0.00,,,0.00,0,Wunderground v.1.15,2013-03-03 09:20:00,
2013-03-03 03:25:00,21.3,9.9,30.13,ESE,103,0.0,0.0,61,0.00,,,0.00,0,Wunderground v.1.15,2013-03-03 09:25:00,
2013-03-03 03:35:00,21.5,9.4,30.13,ESE,103,0.0,0.0,59,0.00,,,0.00,0,Wunderground v.1.15,2013-03-03 09:35:00,
2013-03-03 03:40:00,21.5,9.7,30.13,ESE,103,0.0,1.0,60,0.00,,,0.00,0,Wunderground v.1.15,2013-03-03 09:40:00,
2013-03-03 03:45:00,21.6,9.5,30.12,ESE,103,0.0,1.0,59,0.00,,,0.00,0,Wunderground v.1.15,2013-03-03 09:45:00,
2013-03-03 03:50:00,21.7,9.6,30.12,ESE,103,1.0,1.0,59,0.00,,,0.00,0,Wunderground v.1.15,2013-03-03 09:50:00,
2013-03-03 03:55:00,21.7,9.6,30.12,ESE,103,1.0,1.0,59,0.00,,,0.00,0,Wunderground v.1.15,2013-03-03 09:55:00,
2013-03-03 04:00:00,21.7,9.6,30.12,ESE,103,1.0,2.0,59,0.00,,,0.00,0,Wunderground v.1.15,2013-03-03 10:00:00,
2013-03-03 04:05:00,21.8,9.7,30.12,ESE,103,1.0,2.0,59,0.00,,,0.00,0,Wunderground v.1.15,2013-03-03 10:05:00,
2013-03-03 04:15:00,21.8,9.7,30.12,ESE,103,1.0,1.0,59,0.00,,,0.00,0,Wunderground v.1.15,2013-03-03 10:15:00,
2013-03-03 04:20:00,21.8,9.7,30.12,East,89,1.0,1.0,59,0.00,,,0.00,0,Wunderground v.1.15,2013-03-03 10:20:00,
2013-03-03 04:25:00,21.8,9.7,30.12,East,89,1.0,1.0,59,0.00,,,0.00,0,Wunderground v.1.15,2013-03-03 10:25:00,
2013-03-03 04:30:00,21.8,9.7,30.12,East,90,1.0,2.0,59,0.00,,,0.00,0,Wunderground v.1.15,2013-03-03 10:30:00,
2013-03-03 04:40:00,21.7,9.6,30.12,East,90,1.0,2.0,59,0.00,,,0.00,0,Wunderground v.1.15,2013-03-03 10:40:00,
2013-03-03 04:45:00,21.6,9.5,30.11,East,90,1.0,2.0,59,0.00,,,0.00,0,Wunderground v.1.15,2013-03-03 10:45:00,
2013-03-03 04:54:00,21.4,9.7,30.11,East,90,1.0,1.0,60,0.00,,,0.00,0,Wunderground v.1.15,2013-03-03 10:54:00,
2013-03-03 05:05:00,21.1,9.7,30.11,East,90,1.0,1.0,61,0.00,,,0.00,0,Wunderground v.1.15,2013-03-03 11:05:00,
2013-03-03 05:15:00,21.0,10.0,30.10,East,90,2.0,2.0,62,0.00,,,0.00,0,Wunderground v.1.15,2013-03-03 11:15:00,
2013-03-03 05:20:00,20.9,10.3,30.10,East,90,1.0,1.0,63,0.00,,,0.00,0,Wunderground v.1.15,2013-03-03 11:20:00,
2013-03-03 05:25:00,20.9,10.3,30.10,East,90,1.0,1.0,63,0.00,,,0.00,0,Wunderground v.1.15,2013-03-03 11:25:00,
2013-03-03 05:30:00,20.9,10.3,30.11,East,90,1.0,2.0,63,0.00,,,0.00,0,Wunderground v.1.15,2013-03-03 11:30:00,
2013-03-03 05:35:00,20.9,10.6,30.11,East,90,1.0,2.0,64,0.00,,,0.00,0,Wunderground v.1.15,2013-03-03 11:35:00,
2013-03-03 05:45:00,20.9,10.6,30.12,East,90,1.0,2.0,64,0.00,,,0.00,0,Wunderground v.1.15,2013-03-03 11:45:00,
2013-03-03 05:50:00,20.9,10.6,30.12,East,94,1.0,3.0,64,0.00,,,0.00,0,Wunderground v.1.15,2013-03-03 11:50:00,
2013-03-03 05:55:00,20.8,10.9,30.12,East,94,1.0,3.0,65,0.00,,,0.00,0,Wunderground v.1.15,2013-03-03 11:55:00,
2013-03-03 06:00:00,20.8,10.9,30.12,East,94,1.0,1.0,65,0.00,,,0.00,0,Wunderground v.1.15,2013-03-03 12:00:00,
2013-03-03 06:05:00,20.7,10.8,30.12,East,94,1.0,2.0,65,0.00,,,0.00,0,Wunderground v.1.15,2013-03-03 12:05:00,
2013-03-03 06:15:00,20.6,10.7,30.12,ENE,74,1.0,2.0,65,0.00,,,0.00,0,Wunderground v.1.15,2013-03-03 12:15:00,
2013-03-03 06:20:00,20.6,10.7,30.12,East,82,2.0,2.0,65,0.00,,,0.00,0,Wunderground v.1.15,2013-03-03 12:20:00,
2013-03-03 06:25:00,20.6,10.7,30.12,ENE,76,2.0,2.0,65,0.00,,,0.00,0,Wunderground v.1.15,2013-03-03 12:25:00,
2013-03-03 06:35:00,20.4,10.5,30.11,East,81,2.0,2.0,65,0.00,,,0.00,0,Wunderground v.1.15,2013-03-03 12:35:00,
2013-03-03 06:40:00,20.3,10.4,30.11,ENE,76,2.0,2.0,65,0.00,,,0.00,0,Wunderground v.1.15,2013-03-03 12:40:00,
2013-03-03 06:50:00,20.2,10.6,30.12,East,84,1.0,2.0,66,0.00,,,0.00,5,Wunderground v.1.15,2013-03-03 12:50:00,
2013-03-03 06:55:00,20.1,10.6,30.12,East,84,1.0,2.0,66,0.00,,,0.00,7,Wunderground v.1.15,2013-03-03 12:55:00,
2013-03-03 07:00:00,20.0,10.5,30.12,East,84,2.0,3.0,66,0.00,,,0.00,11,Wunderground v.1.15,2013-03-03 13:00:00,
2013-03-03 07:05:00,20.0,10.5,30.12,East,79,2.0,3.0,66,0.00,,,0.00,14,Wunderground v.1.15,2013-03-03 13:05:00,
2013-03-03 07:15:00,19.9,10.4,30.12,East,79,1.0,2.0,66,0.00,,,0.00,26,Wunderground v.1.15,2013-03-03 13:15:00,
2013-03-03 07:20:00,19.9,10.4,30.12,East,96,2.0,3.0,66,0.00,,,0.00,37,Wunderground v.1.15,2013-03-03 13:20:00,
2013-03-03 07:25:00,19.9,10.4,30.12,East,84,3.0,5.0,66,0.00,,,0.00,47,Wunderground v.1.15,2013-03-03 13:25:00,
2013-03-03 07:30:00,20.0,10.5,30.12,East,88,2.0,2.0,66,0.00,,,0.00,62,Wunderground v.1.15,2013-03-03 13:30:00,
2013-03-03 07:35:00,20.1,10.2,30.12,ENE,78,3.0,3.0,65,0.00,,,0.00,76,Wunderground v.1.15,2013-03-03 13:35:00,
2013-03-03 07:40:00,20.3,10.4,30.12,ENE,74,3.0,3.0,65,0.00,,,0.00,144,Wunderground v.1.15,2013-03-03 13:40:00,
2013-03-03 07:45:00,20.6,10.7,30.12,ENE,64,3.0,4.0,65,0.00,,,0.00,149,Wunderground v.1.15,2013-03-03 13:45:00,
2013-03-03 07:55:00,20.9,10.6,30.12,ENE,70,3.0,3.0,64,0.00,,,0.00,100,Wunderground v.1.15,2013-03-03 13:55:00,
2013-03-03 08:00:00,20.9,10.6,30.11,East,86,3.0,3.0,64,0.00,,,0.00,179,Wunderground v.1.15,2013-03-03 14:00:00,
2013-03-03 08:05:00,21.0,10.7,30.11,East,94,3.0,5.0,64,0.00,,,0.00,98,Wunderground v.1.15,2013-03-03 14:05:00,
2013-03-03 08:15:00,21.1,10.5,30.11,ENE,77,4.0,7.0,63,0.00,,,0.00,109,Wunderground v.1.15,2013-03-03 14:15:00,
2013-03-03 08:25:00,21.5,10.8,30.11,East,88,2.0,3.0,63,0.00,,,0.00,183,Wunderground v.1.15,2013-03-03 14:25:00,
2013-03-03 08:30:00,21.8,11.1,30.11,East,89,3.0,3.0,63,0.00,,,0.00,316,Wunderground v.1.15,2013-03-03 14:30:00,
2013-03-03 08:35:00,22.3,11.2,30.11,ENE,78,4.0,4.0,62,0.00,,,0.00,332,Wunderground v.1.15,2013-03-03 14:35:00,
2013-03-03 08:40:00,22.8,11.7,30.11,East,80,4.0,5.0,62,0.00,,,0.00,338,Wunderground v.1.15,2013-03-03 14:40:00,
2013-03-03 08:50:00,23.5,12.0,30.11,ESE,116,4.0,4.0,61,0.00,,,0.00,320,Wunderground v.1.15,2013-03-03 14:50:00,
2013-03-03 09:00:00,24.0,12.1,30.10,East,92,4.0,4.0,60,0.00,,,0.00,346,Wunderground v.1.15,2013-03-03 15:00:00,
2013-03-03 09:05:00,24.4,12.5,30.10,East,92,4.0,4.0,60,0.00,,,0.00,357,Wunderground v.1.15,2013-03-03 15:05:00,
2013-03-03 09:15:00,24.8,12.5,30.10,ENE,78,4.0,4.0,59,0.00,,,0.00,378,Wunderground v.1.15,2013-03-03 15:15:00,
2013-03-03 09:20:00,24.9,12.6,30.10,East,101,4.0,7.0,59,0.00,,,0.00,390,Wunderground v.1.15,2013-03-03 15:20:00,
2013-03-03 09:29:00,25.6,12.9,30.10,East,99,4.0,4.0,58,0.00,,,0.00,415,Wunderground v.1.15,2013-03-03 15:29:00,
2013-03-03 09:35:00,25.9,12.7,30.10,ENE,57,4.0,4.0,57,0.00,,,0.00,425,Wunderground v.1.15,2013-03-03 15:35:00,
2013-03-03 09:40:00,26.2,13.4,30.10,ESE,111,4.0,4.0,58,0.00,,,0.00,436,Wunderground v.1.15,2013-03-03 15:40:00,
2013-03-03 09:45:00,26.4,13.2,30.10,SE,128,4.0,4.0,57,0.00,,,0.00,445,Wunderground v.1.15,2013-03-03 15:45:00,
2013-03-03 09:50:00,27.0,13.0,30.10,South,180,4.0,4.0,55,0.00,,,0.00,455,Wunderground v.1.15,2013-03-03 15:50:00,
2013-03-03 10:00:00,27.1,13.1,30.10,East,80,5.0,8.0,55,0.00,,,0.00,478,Wunderground v.1.15,2013-03-03 16:00:00,
2013-03-03 10:05:00,27.4,12.9,30.10,ESE,102,4.0,8.0,54,0.00,,,0.00,492,Wunderground v.1.15,2013-03-03 16:05:00,
2013-03-03 10:15:00,27.6,12.7,30.10,East,95,5.0,6.0,53,0.00,,,0.00,512,Wunderground v.1.15,2013-03-03 16:15:00,
2013-03-03 10:20:00,27.5,12.6,30.10,South,183,6.0,6.0,53,0.00,,,0.00,529,Wunderground v.1.15,2013-03-03 16:20:00,
2013-03-03 10:25:00,27.9,13.4,30.10,East,82,5.0,6.0,54,0.00,,,0.00,543,Wunderground v.1.15,2013-03-03 16:25:00,
2013-03-03 10:34:00,28.2,12.8,30.09,SE,143,4.0,8.0,52,0.00,,,0.00,381,Wunderground v.1.15,2013-03-03 16:34:00,
2013-03-03 10:39:00,28.4,13.0,30.09,ENE,69,5.0,5.0,52,0.00,,,0.00,680,Wunderground v.1.15,2013-03-03 16:39:00,
2013-03-03 10:50:00,28.4,12.6,30.09,East,86,6.0,6.0,51,0.00,,,0.00,501,Wunderground v.1.15,2013-03-03 16:50:00,
2013-03-03 10:59:00,28.8,12.5,30.08,ENE,78,5.0,8.0,50,0.00,,,0.00,527,Wunderground v.1.15,2013-03-03 16:59:00,
2013-03-03 11:05:00,28.9,13.5,30.08,East,97,6.0,8.0,52,0.00,,,0.00,443,Wunderground v.1.15,2013-03-03 17:05:00,
2013-03-03 11:15:00,29.3,12.9,30.08,East,95,6.0,7.0,50,0.00,,,0.00,721,Wunderground v.1.15,2013-03-03 17:15:00,
2013-03-03 11:20:00,29.5,13.1,30.08,East,82,6.0,7.0,50,0.00,,,0.00,613,Wunderground v.1.15,2013-03-03 17:20:00,
2013-03-03 11:25:00,29.8,12.9,30.08,ENE,69,6.0,11.0,49,0.00,,,0.00,810,Wunderground v.1.15,2013-03-03 17:25:00,
2013-03-03 11:30:00,30.2,13.3,30.08,ESE,117,6.0,6.0,49,0.00,,,0.00,612,Wunderground v.1.15,2013-03-03 17:30:00,
2013-03-03 11:39:00,30.3,12.9,30.08,ESE,119,6.0,7.0,48,0.00,,,0.00,628,Wunderground v.1.15,2013-03-03 17:39:00,
2013-03-03 11:44:00,30.4,13.0,30.07,ESE,105,6.0,7.0,48,0.00,,,0.00,571,Wunderground v.1.15,2013-03-03 17:44:00,
2013-03-03 11:49:00,30.6,12.7,30.07,East,81,5.0,6.0,47,0.00,,,0.00,545,Wunderground v.1.15,2013-03-03 17:49:00,
2013-03-03 12:00:00,30.5,12.2,30.06,ESE,113,6.0,6.0,46,0.00,,,0.00,520,Wunderground v.1.15,2013-03-03 18:00:00,
2013-03-03 12:05:00,30.7,12.3,30.06,East,85,6.0,6.0,46,0.00,,,0.00,719,Wunderground v.1.15,2013-03-03 18:05:00,
2013-03-03 12:15:00,30.6,12.2,30.06,ESE,102,7.0,7.0,46,0.00,,,0.00,543,Wunderground v.1.15,2013-03-03 18:15:00,
2013-03-03 12:20:00,30.9,12.0,30.06,East,79,7.0,7.0,45,0.00,,,0.00,587,Wunderground v.1.15,2013-03-03 18:20:00,
2013-03-03 12:25:00,31.1,12.2,30.06,ENE,65,6.0,7.0,45,0.00,,,0.00,575,Wunderground v.1.15,2013-03-03 18:25:00,
2013-03-03 12:30:00,31.4,12.5,30.05,East,88,6.0,6.0,45,0.00,,,0.00,550,Wunderground v.1.15,2013-03-03 18:30:00,
2013-03-03 12:35:00,31.6,13.2,30.05,East,84,5.0,8.0,46,0.00,,,0.00,575,Wunderground v.1.15,2013-03-03 18:35:00,
2013-03-03 12:45:00,31.6,12.7,30.05,ENE,68,6.0,12.0,45,0.00,,,0.00,520,Wunderground v.1.15,2013-03-03 18:45:00,
2013-03-03 12:50:00,31.5,12.6,30.05,SE,136,6.0,8.0,45,0.00,,,0.00,485,Wunderground v.1.15,2013-03-03 18:50:00,
2013-03-03 12:55:00,31.5,12.6,30.05,East,81,6.0,9.0,45,0.00,,,0.00,513,Wunderground v.1.15,2013-03-03 18:55:00,
2013-03-03 13:00:00,31.7,13.3,30.04,East,87,6.0,6.0,46,0.00,,,0.00,494,Wunderground v.1.15,2013-03-03 19:00:00,
2013-03-03 13:05:00,31.7,13.3,30.04,East,90,5.0,6.0,46,0.00,,,0.00,559,Wunderground v.1.15,2013-03-03 19:05:00,
2013-03-03 13:15:00,31.4,13.0,30.03,East,99,7.0,9.0,46,0.00,,,0.00,429,Wunderground v.1.15,2013-03-03 19:15:00,
2013-03-03 13:20:00,31.4,13.0,30.03,ENE,72,7.0,9.0,46,0.00,,,0.00,540,Wunderground v.1.15,2013-03-03 19:20:00,
2013-03-03 13:25:00,31.5,13.1,30.03,East,98,7.0,9.0,46,0.00,,,0.00,469,Wunderground v.1.15,2013-03-03 19:25:00,
2013-03-03 13:30:00,32.1,14.1,30.03,East,92,5.0,5.0,47,0.00,,,0.00,457,Wunderground v.1.15,2013-03-03 19:30:00,
2013-03-03 13:35:00,32.2,12.2,30.03,East,80,5.0,7.0,43,0.00,,,0.00,656,Wunderground v.1.15,2013-03-03 19:35:00,
2013-03-03 13:40:00,32.6,14.1,30.03,East,96,6.0,6.0,46,0.00,,,0.00,598,Wunderground v.1.15,2013-03-03 19:40:00,
2013-03-03 13:50:00,32.5,13.5,30.02,East,90,5.0,5.0,45,0.00,,,0.00,461,Wunderground v.1.15,2013-03-03 19:50:00,
2013-03-03 13:55:00,32.3,12.8,30.02,East,82,6.0,7.0,44,0.00,,,0.00,517,Wunderground v.1.15,2013-03-03 19:55:00,
2013-03-03 14:00:00,32.6,13.6,30.01,ENE,70,5.0,5.0,45,0.00,,,0.00,492,Wunderground v.1.15,2013-03-03 20:00:00,
2013-03-03 14:05:00,32.6,13.6,30.01,ESE,109,5.0,5.0,45,0.00,,,0.00,520,Wunderground v.1.15,2013-03-03 20:05:00,
2013-03-03 14:15:00,32.8,14.3,30.01,East,91,5.0,7.0,46,0.00,,,0.00,517,Wunderground v.1.15,2013-03-03 20:15:00,
2013-03-03 14:25:00,32.9,14.4,30.01,East,79,5.0,6.0,46,0.00,,,0.00,473,Wunderground v.1.15,2013-03-03 20:25:00,
2013-03-03 14:30:00,32.9,14.4,30.01,ENE,77,5.0,7.0,46,0.00,,,0.00,459,Wunderground v.1.15,2013-03-03 20:30:00,
2013-03-03 14:35:00,32.9,13.3,30.01,East,92,6.0,7.0,44,0.00,,,0.00,436,Wunderground v.1.15,2013-03-03 20:35:00,
2013-03-03 14:40:00,32.8,13.8,30.01,East,85,6.0,6.0,45,0.00,,,0.00,424,Wunderground v.1.15,2013-03-03 20:40:00,
2013-03-03 14:45:00,33.2,14.1,30.00,ENE,65,5.0,9.0,45,0.00,,,0.00,457,Wunderground v.1.15,2013-03-03 20:45:00,
2013-03-03 14:55:00,33.3,14.2,30.00,East,91,6.0,8.0,45,0.00,,,0.00,482,Wunderground v.1.15,2013-03-03 20:55:00,
2013-03-03 15:00:00,33.3,14.2,30.00,SE,142,6.0,6.0,45,0.00,,,0.00,420,Wunderground v.1.15,2013-03-03 21:00:00,
2013-03-03 15:05:00,33.3,14.2,30.00,SE,128,5.0,6.0,45,0.00,,,0.00,308,Wunderground v.1.15,2013-03-03 21:05:00,
2013-03-03 15:15:00,33.4,13.3,30.00,SSE,157,4.0,4.0,43,0.00,,,0.00,343,Wunderground v.1.15,2013-03-03 21:15:00,
2013-03-03 15:20:00,33.4,13.8,30.00,East,79,4.0,8.0,44,0.00,,,0.00,341,Wunderground v.1.15,2013-03-03 21:20:00,
2013-03-03 15:30:00,33.4,13.3,30.00,East,83,5.0,7.0,43,0.00,,,0.00,346,Wunderground v.1.15,2013-03-03 21:30:00,
2013-03-03 15:35:00,33.2,13.6,30.00,SSE,148,5.0,7.0,44,0.00,,,0.00,295,Wunderground v.1.15,2013-03-03 21:35:00,
2013-03-03 15:40:00,33.1,12.5,30.00,ENE,65,6.0,6.0,42,0.00,,,0.00,316,Wunderground v.1.15,2013-03-03 21:40:00,
2013-03-03 15:45:00,32.9,12.8,30.00,East,101,7.0,7.0,43,0.00,,,0.00,345,Wunderground v.1.15,2013-03-03 21:45:00,
2013-03-03 15:50:00,33.1,13.0,30.00,ENE,72,6.0,7.0,43,0.00,,,0.00,338,Wunderground v.1.15,2013-03-03 21:50:00,
2013-03-03 15:59:00,33.1,12.5,29.99,East,90,6.0,6.0,42,0.00,,,0.00,290,Wunderground v.1.15,2013-03-03 21:59:00,
2013-03-03 16:05:00,33.0,11.8,29.99,ENE,78,6.0,7.0,41,0.00,,,0.00,271,Wunderground v.1.15,2013-03-03 22:05:00,
2013-03-03 16:15:00,33.2,12.0,29.99,East,92,5.0,9.0,41,0.00,,,0.00,290,Wunderground v.1.15,2013-03-03 22:15:00,
2013-03-03 16:20:00,33.3,12.6,29.99,ESE,121,4.0,4.0,42,0.00,,,0.00,257,Wunderground v.1.15,2013-03-03 22:20:00,
2013-03-03 16:25:00,33.4,12.7,29.99,SSE,150,4.0,4.0,42,0.00,,,0.00,192,Wunderground v.1.15,2013-03-03 22:25:00,
2013-03-03 16:30:00,33.2,13.1,29.99,East,98,3.0,3.0,43,0.00,,,0.00,171,Wunderground v.1.15,2013-03-03 22:30:00,
2013-03-03 16:40:00,32.7,13.2,29.99,East,84,5.0,5.0,44,0.00,,,0.00,118,Wunderground v.1.15,2013-03-03 22:40:00,
2013-03-03 16:45:00,32.6,13.1,29.99,East,83,4.0,5.0,44,0.00,,,0.00,107,Wunderground v.1.15,2013-03-03 22:45:00,
2013-03-03 16:54:00,32.3,13.3,29.99,East,95,4.0,6.0,45,0.00,,,0.00,84,Wunderground v.1.15,2013-03-03 22:54:00,
2013-03-03 17:00:00,32.1,12.6,29.99,East,86,5.0,7.0,44,0.00,,,0.00,72,Wunderground v.1.15,2013-03-03 23:00:00,
2013-03-03 17:05:00,31.9,12.9,29.99,East,90,5.0,7.0,45,0.00,,,0.00,63,Wunderground v.1.15,2013-03-03 23:05:00,
2013-03-03 17:15:00,31.6,13.7,29.99,East,80,4.0,7.0,47,0.00,,,0.00,54,Wunderground v.1.15,2013-03-03 23:15:00,
2013-03-03 17:20:00,31.4,13.5,29.99,East,80,4.0,4.0,47,0.00,,,0.00,51,Wunderground v.1.15,2013-03-03 23:20:00,
2013-03-03 17:30:00,31.1,13.7,29.99,East,83,4.0,5.0,48,0.00,,,0.00,42,Wunderground v.1.15,2013-03-03 23:30:00,
2013-03-03 17:39:00,30.9,13.5,29.99,East,84,3.0,3.0,48,0.00,,,0.00,28,Wunderground v.1.15,2013-03-03 23:39:00,
2013-03-03 17:44:00,30.7,13.3,29.99,East,94,3.0,3.0,48,0.00,,,0.00,21,Wunderground v.1.15,2013-03-03 23:44:00,
2013-03-03 17:49:00,30.6,13.7,29.99,ENE,76,2.0,2.0,49,0.00,,,0.00,12,Wunderground v.1.15,2013-03-03 23:49:00,
2013-03-03 17:54:00,30.4,13.5,29.99,East,90,3.0,3.0,49,0.00,,,0.00,9,Wunderground v.1.15,2013-03-03 23:54:00,
2013-03-03 17:59:00,30.2,13.3,29.99,East,87,2.0,2.0,49,0.00,,,0.00,5,Wunderground v.1.15,2013-03-03 23:59:00,
2013-03-03 18:05:00,30.1,13.2,29.99,East,90,2.0,5.0,49,0.00,,,0.00,0,Wunderground v.1.15,2013-03-04 00:05:00,
2013-03-03 18:14:00,29.8,12.5,29.99,East,101,2.0,3.0,48,0.00,,,0.00,0,Wunderground v.1.15,2013-03-04 00:14:00,
2013-03-03 18:19:00,29.8,12.9,30.00,ENE,71,3.0,4.0,49,0.00,,,0.00,0,Wunderground v.1.15,2013-03-04 00:19:00,
2013-03-03 18:24:00,29.7,12.4,30.00,East,84,3.0,4.0,48,0.00,,,0.00,0,Wunderground v.1.15,2013-03-04 00:24:00,
2013-03-03 18:29:00,29.6,12.8,30.00,East,86,2.0,3.0,49,0.00,,,0.00,0,Wunderground v.1.15,2013-03-04 00:29:00,
2013-03-03 18:34:00,29.4,12.6,30.00,East,96,1.0,3.0,49,0.00,,,0.00,0,Wunderground v.1.15,2013-03-04 00:34:00,
2013-03-03 18:40:00,29.3,12.5,30.00,East,82,2.0,2.0,49,0.00,,,0.00,0,Wunderground v.1.15,2013-03-04 00:40:00,
2013-03-03 18:45:00,29.1,12.8,30.00,ENE,73,2.0,2.0,50,0.00,,,0.00,0,Wunderground v.1.15,2013-03-04 00:45:00,
2013-03-03 18:50:00,29.0,12.7,30.00,East,92,2.0,2.0,50,0.00,,,0.00,0,Wunderground v.1.15,2013-03-04 00:50:00,
2013-03-03 19:00:00,28.4,12.6,30.00,NNE,33,1.0,1.0,51,0.00,,,0.00,0,Wunderground v.1.15,2013-03-04 01:00:00,
2013-03-03 19:05:00,27.9,12.5,30.00,NNE,33,1.0,2.0,52,0.00,,,0.00,0,Wunderground v.1.15,2013-03-04 01:05:00,
2013-03-03 19:15:00,27.2,11.9,30.00,ENE,68,1.0,1.0,52,0.00,,,0.00,0,Wunderground v.1.15,2013-03-04 01:15:00,
2013-03-03 19:20:00,27.1,11.8,30.00,ENE,75,1.0,1.0,52,0.00,,,0.00,0,Wunderground v.1.15,2013-03-04 01:20:00,
2013-03-03 19:25:00,27.0,11.7,30.00,NNE,26,2.0,2.0,52,0.00,,,0.00,0,Wunderground v.1.15,2013-03-04 01:25:00,
2013-03-03 19:30:00,27.0,11.7,30.00,ENE,69,2.0,3.0,52,0.00,,,0.00,0,Wunderground v.1.15,2013-03-04 01:30:00,
2013-03-03 19:35:00,27.0,11.3,30.00,ENE,64,2.0,3.0,51,0.00,,,0.00,0,Wunderground v.1.15,2013-03-04 01:35:00,
2013-03-03 19:45:00,27.1,11.3,30.00,NE,52,3.0,5.0,51,0.00,,,0.00,0,Wunderground v.1.15,2013-03-04 01:45:00,
2013-03-03 19:50:00,27.1,11.3,30.00,NE,47,3.0,3.0,51,0.00,,,0.00,0,Wunderground v.1.15,2013-03-04 01:50:00,
2013-03-03 19:55:00,27.2,11.4,30.00,ENE,72,3.0,5.0,51,0.00,,,0.00,0,Wunderground v.1.15,2013-03-04 01:55:00,
2013-03-03 20:00:00,27.2,11.4,30.00,NNE,24,3.0,3.0,51,0.00,,,0.00,0,Wunderground v.1.15,2013-03-04 02:00:00,
2013-03-03 20:05:00,27.2,11.4,30.00,NE,41,2.0,3.0,51,0.00,,,0.00,0,Wunderground v.1.15,2013-03-04 02:05:00,
2013-03-03 20:15:00,27.1,11.3,30.00,East,84,2.0,2.0,51,0.00,,,0.00,0,Wunderground v.1.15,2013-03-04 02:15:00,
2013-03-03 20:25:00,27.1,11.3,30.00,ENE,63,2.0,4.0,51,0.00,,,0.00,0,Wunderground v.1.15,2013-03-04 02:25:00,
2013-03-03 20:30:00,27.0,11.7,30.00,ENE,76,2.0,2.0,52,0.00,,,0.00,0,Wunderground v.1.15,2013-03-04 02:30:00,
2013-03-03 20:35:00,26.9,11.6,30.00,ENE,68,1.0,2.0,52,0.00,,,0.00,0,Wunderground v.1.15,2013-03-04 02:35:00,
2013-03-03 20:40:00,26.9,11.6,30.00,East,82,1.0,3.0,52,0.00,,,0.00,0,Wunderground v.1.15,2013-03-04 02:40:00,
2013-03-03 20:49:00,26.8,11.5,30.00,East,81,2.0,2.0,52,0.00,,,0.00,0,Wunderground v.1.15,2013-03-04 02:49:00,
2013-03-03 20:54:00,26.8,11.1,30.00,ENE,63,1.0,2.0,51,0.00,,,0.00,0,Wunderground v.1.15,2013-03-04 02:54:00,
2013-03-03 20:59:00,26.8,11.1,30.00,ENE,75,1.0,1.0,51,0.00,,,0.00,0,Wunderground v.1.15,2013-03-04 02:59:00,
2013-03-03 21:05:00,26.8,11.1,30.00,East,87,1.0,1.0,51,0.00,,,0.00,0,Wunderground v.1.15,2013-03-04 03:05:00,
2013-03-03 21:15:00,26.8,10.6,30.00,ENE,75,2.0,3.0,50,0.00,,,0.00,0,Wunderground v.1.15,2013-03-04 03:15:00,
2013-03-03 21:24:00,26.8,11.1,30.00,ENE,71,2.0,3.0,51,0.00,,,0.00,0,Wunderground v.1.15,2013-03-04 03:24:00,
2013-03-03 21:29:00,26.7,10.5,29.99,East,83,2.0,2.0,50,0.00,,,0.00,0,Wunderground v.1.15,2013-03-04 03:29:00,
2013-03-03 21:34:00,26.7,10.5,29.99,ENE,71,2.0,2.0,50,0.00,,,0.00,0,Wunderground v.1.15,2013-03-04 03:34:00,
2013-03-03 21:39:00,26.7,10.5,29.99,East,83,3.0,3.0,50,0.00,,,0.00,0,Wunderground v.1.15,2013-03-04 03:39:00,
2013-03-03 21:44:00,26.8,10.6,29.98,ENE,73,2.0,3.0,50,0.00,,,0.00,0,Wunderground v.1.15,2013-03-04 03:44:00,
2013-03-03 21:50:00,26.8,10.6,29.98,ENE,71,2.0,3.0,50,0.00,,,0.00,0,Wunderground v.1.15,2013-03-04 03:50:00,
2013-03-03 21:55:00,26.8,10.6,29.98,ENE,75,2.0,4.0,50,0.00,,,0.00,0,Wunderground v.1.15,2013-03-04 03:55:00,
2013-03-03 22:05:00,27.0,10.4,29.98,North,5,3.0,3.0,49,0.00,,,0.00,0,Wunderground v.1.15,2013-03-04 04:05:00,
2013-03-03 22:15:00,27.1,10.4,29.98,East,82,3.0,3.0,49,0.00,,,0.00,0,Wunderground v.1.15,2013-03-04 04:15:00,
2013-03-03 22:20:00,27.2,11.0,29.98,East,84,3.0,3.0,50,0.00,,,0.00,0,Wunderground v.1.15,2013-03-04 04:20:00,
2013-03-03 22:30:00,27.2,10.5,29.97,East,83,3.0,3.0,49,0.00,,,0.00,0,Wunderground v.1.15,2013-03-04 04:30:00,
2013-03-03 22:35:00,27.2,11.0,29.97,East,84,3.0,3.0,50,0.00,,,0.00,0,Wunderground v.1.15,2013-03-04 04:35:00,
2013-03-03 22:40:00,27.2,11.0,29.97,ENE,64,3.0,3.0,50,0.00,,,0.00,0,Wunderground v.1.15,2013-03-04 04:40:00,
2013-03-03 22:45:00,27.2,11.0,29.97,ESE,105,3.0,3.0,50,0.00,,,0.00,0,Wunderground v.1.15,2013-03-04 04:45:00,
2013-03-03 22:55:00,27.3,11.1,29.97,East,82,3.0,3.0,50,0.00,,,0.00,0,Wunderground v.1.15,2013-03-04 04:55:00,
2013-03-03 23:05:00,27.3,11.1,29.98,ENE,65,3.0,4.0,50,0.00,,,0.00,0,Wunderground v.1.15,2013-03-04 05:05:00,
2013-03-03 23:10:00,27.4,11.2,29.98,ESE,109,3.0,3.0,50,0.00,,,0.00,0,Wunderground v.1.15,2013-03-04 05:10:00,
2013-03-03 23:15:00,27.4,10.7,29.98,East,94,3.0,3.0,49,0.00,,,0.00,0,Wunderground v.1.15,2013-03-04 05:15:00,
2013-03-03 23:20:00,27.4,10.7,29.98,East,100,3.0,3.0,49,0.00,,,0.00,0,Wunderground v.1.15,2013-03-04 05:20:00,
2013-03-03 23:25:00,27.5,11.3,29.98,ENE,77,3.0,3.0,50,0.00,,,0.00,0,Wunderground v.1.15,2013-03-04 05:25:00,
2013-03-03 23:34:00,27.5,11.3,29.98,ENE,58,3.0,3.0,50,0.00,,,0.00,0,Wunderground v.1.15,2013-03-04 05:34:00,
2013-03-03 23:39:00,27.6,11.4,29.98,East,85,3.0,3.0,50,0.00,,,0.00,0,Wunderground v.1.15,2013-03-04 05:39:00,
2013-03-03 23:44:00,27.6,11.4,29.99,East,94,3.0,3.0,50,0.00,,,0.00,0,Wunderground v.1.15,2013-03-04 05:44:00,
2013-03-03 23:49:00,27.6,11.4,29.99,East,88,2.0,3.0,50,0.00,,,0.00,0,Wunderground v.1.15,2013-03-04 05:49:00,
2013-03-03 23:54:00,27.6,11.4,29.99,ENE,57,2.0,3.0,50,0.00,,,0.00,0,Wunderground v.1.15,2013-03-04 05:54:00,